When you browse on this site, cookies collect data to enhance your experience and personalize the content and advertising you see.
Visit our Privacy Policy to learn more. By continuing to use the site, you agree to this use of cookies and data.
  • In Schweiz
  • Länderverzeichnis
  • Für 7 Tage
  • Wassertemperatur
  • Wetterkarte
  • Widgets
  • user-avatar
    Anmelden

    Stündliche Wetter Atlanta

    Heute, 15 Dezember, Sonntag

    Zeit Temperatur Niederschläge Wind Luftdruck Luftfeuchtigkeit
    00:00 +8°C° 0 mm 1 m/S 733 mmHg 81%
    01:00 +8°C° 0 mm 1 m/S 733 mmHg 84%
    02:00 +8°C° 0 mm 1 m/S 733 mmHg 86%
    03:00 +8°C° 0 mm 1 m/S 734 mmHg 88%
    04:00 +8°C° 0 mm 1 m/S 734 mmHg 90%
    05:00 +8°C° 0 mm 1 m/S 735 mmHg 92%
    06:00 +7°C° 0 mm 1 m/S 735 mmHg 95%
    07:00 +9°C° 0 mm 1 m/S 736 mmHg 90%
    08:00 +10°C° 0 mm 1 m/S 736 mmHg 85%
    09:00 +11°C° 0 mm 1 m/S 737 mmHg 81%
    10:00 +12°C° 0 mm 2 m/S 737 mmHg 74%
    11:00 +14°C° 0 mm 2 m/S 736 mmHg 68%
    12:00 +15°C° 0 mm 2 m/S 736 mmHg 62%
    13:00 +16°C° 0 mm 2 m/S 736 mmHg 63%
    14:00 +16°C° 0 mm 2 m/S 736 mmHg 63%
    15:00 +16°C° 0 mm 3 m/S 735 mmHg 64%
    16:00 +15°C° 0 mm 2 m/S 736 mmHg 70%
    17:00 +14°C° 0 mm 2 m/S 736 mmHg 77%
    18:00 +13°C° 0 mm 2 m/S 736 mmHg 84%
    19:00 +13°C° 0 mm 2 m/S 737 mmHg 85%
    20:00 +12°C° 0 mm 2 m/S 737 mmHg 86%
    21:00 +12°C° 0 mm 2 m/S 737 mmHg 87%
    22:00 +12°C° 0 mm 2 m/S 737 mmHg 87%
    23:00 +10°C° 0 mm 2 m/S 737 mmHg 88%

    Morgen, 16 Dezember, Montag

    Zeit Temperatur Niederschläge Wind Luftdruck Luftfeuchtigkeit
    00:00 +10°C° 0 mm 2 m/S 737 mmHg 88%
    01:00 +10°C° 0 mm 2 m/S 737 mmHg 90%
    02:00 +10°C° 0 mm 2 m/S 736 mmHg 93%
    03:00 +10°C° 0 mm 1 m/S 736 mmHg 95%
    04:00 +11°C° 0 mm 1 m/S 737 mmHg 96%
    05:00 +10°C° 0 mm 2 m/S 737 mmHg 96%
    06:00 +10°C° 0 mm 2 m/S 737 mmHg 97%
    07:00 +12°C° 0 mm 2 m/S 737 mmHg 94%
    08:00 +12°C° 0 mm 2 m/S 737 mmHg 92%
    09:00 +12°C° 0 mm 3 m/S 737 mmHg 89%
    10:00 +13°C° 0 mm 3 m/S 737 mmHg 83%
    11:00 +16°C° 0 mm 3 m/S 737 mmHg 77%
    12:00 +17°C° 0 mm 3 m/S 736 mmHg 71%
    13:00 +18°C° 0 mm 2 m/S 735 mmHg 71%
    14:00 +18°C° 0 mm 2 m/S 735 mmHg 72%
    15:00 +19°C° 0 mm 2 m/S 734 mmHg 72%
    16:00 +18°C° 0 mm 3 m/S 734 mmHg 75%
    17:00 +18°C° 0 mm 3 m/S 734 mmHg 79%
    18:00 +17°C° 0 mm 4 m/S 733 mmHg 82%
    19:00 +17°C° 0 mm 4 m/S 733 mmHg 85%
    20:00 +17°C° 0 mm 4 m/S 733 mmHg 88%
    21:00 +17°C° 0 mm 4 m/S 732 mmHg 91%
    22:00 +16°C° 0.4 mm 5 m/S 732 mmHg 91%
    23:00 +17°C° 0.4 mm 5 m/S 731 mmHg 92%

    übermorgen, 17 Dezember, Dienstag

    Zeit Temperatur Niederschläge Wind Luftdruck Luftfeuchtigkeit
    00:00 +17°C° 0.4 mm 6 m/S 731 mmHg 93%
    01:00 +17°C° 2.4 mm 6 m/S 731 mmHg 93%
    02:00 +17°C° 2.4 mm 5 m/S 730 mmHg 92%
    03:00 +19°C° 2.4 mm 5 m/S 730 mmHg 92%
    04:00 +17°C° 1.8 mm 5 m/S 730 mmHg 92%
    05:00 +17°C° 1.8 mm 5 m/S 730 mmHg 93%
    06:00 +18°C° 1.8 mm 4 m/S 731 mmHg 93%
    07:00 +16°C° 0.2 mm 5 m/S 731 mmHg 87%
    08:00 +15°C° 0.2 mm 5 m/S 732 mmHg 82%
    09:00 +13°C° 0.2 mm 6 m/S 732 mmHg 76%
    10:00 +13°C° 0 mm 6 m/S 732 mmHg 71%
    11:00 +13°C° 0 mm 6 m/S 732 mmHg 66%
    12:00 +13°C° 0 mm 5 m/S 732 mmHg 61%
    13:00 +11°C° 0 mm 6 m/S 732 mmHg 60%
    14:00 +10°C° 0 mm 6 m/S 732 mmHg 59%
    15:00 +9°C° 0 mm 6 m/S 732 mmHg 57%
    16:00 +8°C° 0 mm 6 m/S 733 mmHg 58%
    17:00 +7°C° 0 mm 6 m/S 734 mmHg 59%
    18:00 +5°C° 0 mm 6 m/S 734 mmHg 60%
    19:00 +4°C° 0 mm 6 m/S 734 mmHg 62%
    20:00 +5°C° 0 mm 5 m/S 735 mmHg 63%
    21:00 +3°C° 0 mm 5 m/S 735 mmHg 65%
    22:00 +2°C° 0 mm 5 m/S 735 mmHg 64%
    23:00 +2°C° 0 mm 5 m/S 736 mmHg 64%

    18 Dezember, Mittwoch

    Zeit Temperatur Niederschläge Wind Luftdruck Luftfeuchtigkeit
    00:00 +1°C° 0 mm 5 m/S 736 mmHg 64%
    01:00 +1°C° 0 mm 5 m/S 736 mmHg 65%
    02:00 0°C° 0 mm 5 m/S 736 mmHg 66%
    03:00 0°C° 0 mm 5 m/S 737 mmHg 67%
    04:00 -1°C° 0 mm 5 m/S 737 mmHg 67%
    05:00 -1°C° 0 mm 5 m/S 737 mmHg 68%
    06:00 -1°C° 0 mm 4 m/S 738 mmHg 68%
    07:00 0°C° 0 mm 4 m/S 738 mmHg 62%
    08:00 0°C° 0 mm 4 m/S 739 mmHg 57%
    09:00 +1°C° 0 mm 4 m/S 739 mmHg 52%
    10:00 +3°C° 0 mm 4 m/S 739 mmHg 47%
    11:00 +5°C° 0 mm 4 m/S 739 mmHg 41%
    12:00 +6°C° 0 mm 5 m/S 739 mmHg 35%
    13:00 +6°C° 0 mm 4 m/S 739 mmHg 35%
    14:00 +6°C° 0 mm 4 m/S 738 mmHg 35%
    15:00 +6°C° 0 mm 4 m/S 738 mmHg 35%
    16:00 +6°C° 0 mm 4 m/S 739 mmHg 38%
    17:00 +5°C° 0 mm 4 m/S 739 mmHg 42%
    18:00 +4°C° 0 mm 4 m/S 740 mmHg 45%
    19:00 +4°C° 0 mm 4 m/S 740 mmHg 46%
    20:00 +3°C° 0 mm 3 m/S 740 mmHg 48%
    21:00 +3°C° 0 mm 3 m/S 741 mmHg 49%
    22:00 +3°C° 0 mm 3 m/S 741 mmHg 49%
    23:00 +2°C° 0 mm 3 m/S 741 mmHg 49%

    19 Dezember, Donnerstag

    Zeit Temperatur Niederschläge Wind Luftdruck Luftfeuchtigkeit
    00:00 +2°C° 0 mm 3 m/S 741 mmHg 48%
    01:00 +2°C° 0 mm 3 m/S 741 mmHg 49%
    02:00 +3°C° 0 mm 2 m/S 741 mmHg 50%
    03:00 +2°C° 0 mm 2 m/S 741 mmHg 51%
    04:00 +2°C° 0 mm 2 m/S 742 mmHg 52%
    05:00 +2°C° 0 mm 2 m/S 742 mmHg 53%
    06:00 +3°C° 0 mm 1 m/S 742 mmHg 54%
    07:00 +4°C° 0 mm 1 m/S 743 mmHg 50%
    08:00 +5°C° 0 mm 1 m/S 743 mmHg 46%
    09:00 +6°C° 0 mm 1 m/S 744 mmHg 41%
    10:00 +8°C° 0 mm 1 m/S 743 mmHg 37%
    11:00 +9°C° 0 mm 0 m/S 743 mmHg 32%
    12:00 +10°C° 0 mm 0 m/S 742 mmHg 28%
    13:00 +11°C° 0 mm 0 m/S 742 mmHg 27%
    14:00 +11°C° 0 mm 0 m/S 742 mmHg 27%
    15:00 +11°C° 0 mm 0 m/S 742 mmHg 26%
    16:00 +11°C° 0 mm 1 m/S 742 mmHg 30%
    17:00 +10°C° 0 mm 1 m/S 742 mmHg 34%
    18:00 +9°C° 0 mm 1 m/S 743 mmHg 37%
    19:00 +8°C° 0 mm 1 m/S 743 mmHg 41%
    20:00 +8°C° 0 mm 1 m/S 743 mmHg 45%
    21:00 +7°C° 0 mm 1 m/S 743 mmHg 48%
    22:00 +7°C° 0 mm 1 m/S 743 mmHg 50%
    23:00 +6°C° 0 mm 1 m/S 743 mmHg 53%

    20 Dezember, Freitag

    Zeit Temperatur Niederschläge Wind Luftdruck Luftfeuchtigkeit
    00:00 +6°C° 0 mm 1 m/S 742 mmHg 55%
    01:00 +6°C° 0 mm 1 m/S 742 mmHg 57%
    02:00 +5°C° 0 mm 1 m/S 742 mmHg 58%
    03:00 +5°C° 0 mm 1 m/S 743 mmHg 60%
    04:00 +5°C° 0 mm 1 m/S 743 mmHg 61%
    05:00 +5°C° 0 mm 1 m/S 743 mmHg 62%
    06:00 +5°C° 0 mm 1 m/S 743 mmHg 63%
    07:00 +6°C° 0 mm 1 m/S 743 mmHg 60%
    08:00 +6°C° 0 mm 1 m/S 743 mmHg 58%
    09:00 +7°C° 0 mm 1 m/S 743 mmHg 56%
    10:00 +8°C° 0 mm 1 m/S 742 mmHg 51%
    11:00 +9°C° 0 mm 1 m/S 742 mmHg 47%
    12:00 +10°C° 0 mm 1 m/S 741 mmHg 43%
    13:00 +10°C° 0 mm 1 m/S 741 mmHg 44%
    14:00 +11°C° 0 mm 1 m/S 740 mmHg 46%
    15:00 +11°C° 0 mm 1 m/S 740 mmHg 47%
    16:00 +10°C° 0 mm 1 m/S 739 mmHg 51%
    17:00 +10°C° 0 mm 1 m/S 739 mmHg 54%
    18:00 +9°C° 0 mm 1 m/S 739 mmHg 58%
    19:00 +8°C° 0 mm 2 m/S 739 mmHg 61%
    20:00 +8°C° 0 mm 2 m/S 739 mmHg 64%
    21:00 +8°C° 0 mm 2 m/S 738 mmHg 67%
    22:00 +7°C° 0.7 mm 2 m/S 738 mmHg 73%
    23:00 +7°C° 0.7 mm 2 m/S 737 mmHg 79%
    Mehr zeigen